Temp
-15 -15 -15 -15 -15 -15 -15 -16 -16 -16 -17 -17 -18 -18 -19 -19 -19 -20 -20 -20 -21 -21 -21 -21 -21 -21 -21 -22 -22 -22 -22 -22 -22 -22 -22 -22 -23 -23 -23 -23 -24 -24
-15 -15 -15 -15 -15 -16 -16 -16 -16 -17 -17 -18 -18 -19 -19 -19 -20 -20 -21 -21 -21 -21 -21 -21 -21 -22 -22 -22 -22 -22 -22 -22 -23 -23 -23 -23 -23 -23 -23 -24 -24 -24
-15 -15 -15 -15 -16 -16 -16 -17 -17 -17 -18 -18 -19 -19 -20 -20 -20 -21 -21 -21 -21 -21 -21 -22 -22 -22 -22 -22 -22 -22 -23 -23 -23 -23 -23 -23 -23 -23 -24 -24 -24 -24
-15 -15 -15 -15 -16 -16 -17 -17 -17 -17 -18 -18 -19 -19 -20 -20 -21 -21 -21 -21 -21 -22 -22 -22 -22 -22 -22 -22 -23 -23 -23 -23 -23 -23 -23 -23 -23 -24 -24 -25 -24 -24
-15 -15 -15 -16 -16 -17 -17 -17 -17 -18 -18 -19 -19 -20 -20 -21 -21 -21 -21 -22 -22 -22 -22 -22 -22 -22 -22 -23 -23 -23 -23 -23 -23 -23 -24 -24 -24 -24 -25 -25 -24 -24
-15 -16 -16 -16 -17 -17 -17 -17 -18 -18 -19 -19 -20 -20 -20 -21 -21 -21 -22 -22 -22 -22 -22 -22 -22 -22 -23 -23 -23 -23 -23 -23 -23 -24 -24 -24 -24 -25 -25 -25 -25 -24
-16 -16 -17 -17 -17 -17 -18 -18 -18 -18 -19 -19 -20 -20 -21 -21 -21 -22 -22 -22 -22 -22 -22 -22 -23 -23 -23 -23 -23 -24 -24 -24 -24 -24 -25 -25 -25 -25 -26 -25 -25 -25
-16 -17 -17 -17 -18 -18 -18 -18 -18 -19 -19 -20 -20 -20 -21 -21 -21 -22 -22 -22 -22 -22 -22 -23 -23 -23 -23 -24 -24 -24 -24 -24 -24 -25 -25 -26 -26 -26 -26 -25 -25 -25
-17 -17 -18 -18 -18 -18 -18 -18 -19 -19 -20 -20 -20 -21 -21 -21 -22 -22 -22 -22 -23 -23 -23 -23 -23 -24 -24 -24 -24 -24 -24 -25 -25 -26 -26 -26 -26 -26 -26 -25 -25 -25
-17 -18 -18 -18 -18 -18 -18 -19 -19 -19 -20 -20 -21 -21 -21 -22 -22 -23 -23 -23 -23 -23 -23 -24 -24 -24 -24 -24 -24 -25 -25 -25 -26 -27 -27 -27 -27 -26 -26 -26 -25 -25
-18 -18 -18 -18 -18 -18 -18 -19 -19 -20 -20 -21 -21 -21 -22 -22 -23 -23 -23 -23 -23 -23 -24 -24 -24 -24 -25 -25 -25 -25 -26 -26 -27 -28 -28 -28 -27 -26 -26 -26 -26 -26
-18 -18 -18 -18 -19 -19 -19 -19 -20 -20 -21 -21 -21 -22 -22 -22 -23 -23 -23 -23 -23 -24 -24 -24 -24 -25 -25 -26 -26 -27 -27 -28 -28 -29 -28 -28 -27 -26 -26 -26 -26 -26
-18 -19 -19 -19 -19 -19 -19 -19 -20 -20 -21 -21 -22 -22 -22 -23 -23 -23 -23 -23 -24 -24 -24 -24 -25 -25 -26 -27 -28 -28 -28 -29 -29 -29 -28 -27 -27 -27 -26 -26 -26 -26
-19 -19 -19 -19 -19 -19 -19 -20 -20 -21 -21 -22 -22 -22 -23 -23 -23 -23 -23 -24 -24 -24 -24 -25 -25 -26 -27 -28 -29 -30 -29 -29 -29 -29 -28 -27 -27 -27 -27 -26 -26 -26
-19 -19 -19 -19 -19 -19 -20 -20 -21 -21 -22 -22 -22 -22 -23 -23 -23 -23 -24 -24 -24 -24 -25 -25 -26 -28 -29 -30 -30 -30 -30 -29 -29 -28 -28 -28 -27 -27 -27 -26 -26 -26
-19 -19 -19 -19 -19 -20 -20 -20 -21 -21 -22 -22 -22 -23 -23 -23 -23 -24 -24 -24 -24 -25 -25 -26 -27 -29 -30 -30 -30 -30 -29 -29 -29 -28 -28 -28 -27 -27 -27 -27 -27 -27
-20 -20 -20 -20 -20 -20 -20 -21 -21 -22 -22 -22 -23 -23 -23 -23 -24 -24 -24 -25 -25 -25 -26 -27 -29 -30 -31 -31 -30 -29 -29 -28 -28 -28 -28 -28 -27 -27 -27 -27 -27 -27
-20 -20 -20 -20 -20 -20 -21 -21 -22 -22 -22 -23 -23 -23 -23 -24 -24 -24 -25 -25 -25 -26 -26 -28 -30 -30 -30 -30 -29 -29 -28 -28 -27 -27 -27 -27 -27 -27 -27 -27 -28 -28
-20 -20 -20 -20 -20 -20 -21 -21 -22 -22 -23 -23 -23 -23 -24 -24 -24 -25 -25 -25 -25 -26 -27 -29 -30 -30 -29 -29 -28 -28 -27 -27 -27 -27 -27 -27 -27 -27 -27 -28 -28 -28
-20 -20 -20 -20 -20 -21 -21 -22 -22 -23 -23 -23 -23 -24 -24 -24 -25 -25 -25 -25 -26 -27 -28 -29 -30 -30 -29 -28 -28 -27 -27 -27 -27 -27 -27 -27 -27 -27 -28 -28 -28 -28
-20 -20 -20 -20 -21 -21 -22 -22 -23 -23 -23 -23 -24 -24 -24 -25 -25 -25 -25 -25 -26 -27 -29 -30 -30 -29 -28 -27 -27 -27 -27 -27 -27 -27 -27 -27 -27 -27 -28 -28 -28 -29
-20 -20 -21 -21 -21 -21 -22 -22 -23 -23 -23 -23 -24 -24 -25 -25 -25 -25 -25 -26 -27 -28 -29 -30 -29 -28 -28 -27 -27 -27 -27 -27 -27 -27 -27 -27 -27 -28 -28 -28 -28 -29
-21 -21 -21 -21 -21 -22 -22 -23 -23 -23 -24 -24 -24 -24 -25 -25 -25 -25 -26 -27 -28 -28 -29 -29 -29 -28 -27 -27 -27 -27 -27 -27 -28 -27 -28 -28 -28 -28 -28 -28 -28 -28
-21 -21 -21 -21 -22 -22 -22 -23 -23 -24 -24 -24 -24 -25 -25 -25 -25 -26 -27 -28 -29 -29 -29 -29 -28 -28 -27 -27 -27 -27 -27 -28 -28 -28 -28 -28 -28 -28 -28 -28 -28 -28
-21 -21 -21 -21 -22 -22 -23 -23 -23 -24 -24 -24 -25 -25 -25 -25 -25 -26 -28 -29 -30 -30 -29 -28 -28 -28 -27 -27 -27 -27 -28 -28 -28 -28 -28 -28 -28 -27 -28 -28 -28 -27
-21 -21 -21 -22 -22 -23 -23 -23 -24 -24 -24 -25 -25 -25 -25 -25 -26 -27 -28 -30 -30 -30 -29 -28 -28 -27 -27 -27 -27 -28 -28 -28 -28 -29 -29 -28 -28 -27 -27 -27 -27 -27
Height
5595 5590 5584 5578 5572 5566 5561 5556 5551 5545 5539 5533 5528 5523 5518 5513 5507 5502 5497 5493 5488 5484 5478 5473 5469 5464 5459 5454 5448 5442 5438 5434 5429 5424 5418 5413 5408 5402 5396 5389 5383 5382
5585 5579 5573 5568 5561 5555 5550 5546 5541 5536 5530 5524 5518 5513 5508 5502 5497 5491 5486 5482 5478 5473 5467 5462 5456 5451 5446 5441 5435 5429 5424 5419 5415 5409 5404 5399 5394 5389 5383 5377 5374 5374
5574 5569 5563 5557 5551 5546 5541 5536 5531 5525 5520 5514 5508 5502 5498 5492 5487 5481 5476 5471 5467 5462 5456 5450 5444 5438 5433 5427 5421 5415 5409 5404 5400 5394 5390 5385 5380 5375 5371 5367 5365 5366
5565 5558 5552 5546 5541 5537 5532 5527 5522 5515 5510 5504 5498 5492 5487 5482 5476 5471 5466 5460 5455 5451 5445 5439 5433 5426 5420 5413 5407 5402 5395 5390 5385 5379 5375 5371 5366 5361 5359 5356 5357 5358
5555 5549 5542 5536 5531 5527 5523 5518 5512 5506 5500 5494 5488 5482 5476 5472 5466 5460 5455 5449 5444 5439 5433 5427 5421 5414 5407 5400 5394 5387 5381 5375 5370 5365 5360 5357 5351 5348 5347 5346 5347 5350
5546 5539 5533 5527 5522 5518 5513 5508 5502 5496 5490 5484 5478 5472 5466 5461 5456 5449 5443 5438 5433 5427 5421 5414 5408 5402 5394 5387 5380 5374 5367 5361 5356 5350 5345 5342 5337 5335 5336 5336 5338 5341
5536 5530 5523 5518 5513 5508 5503 5498 5492 5486 5480 5475 5469 5463 5457 5451 5445 5438 5432 5427 5421 5415 5408 5401 5394 5388 5381 5374 5366 5359 5353 5347 5342 5336 5331 5327 5324 5323 5325 5325 5328 5332
5527 5521 5514 5509 5504 5499 5493 5488 5482 5476 5470 5465 5460 5453 5447 5440 5434 5428 5422 5415 5410 5403 5395 5388 5380 5373 5366 5359 5352 5345 5338 5333 5328 5321 5316 5313 5312 5312 5314 5315 5318 5323
5518 5511 5506 5500 5496 5490 5484 5478 5472 5467 5461 5455 5450 5444 5437 5430 5423 5418 5411 5405 5398 5391 5383 5375 5367 5358 5350 5343 5337 5329 5323 5318 5313 5307 5302 5301 5301 5302 5304 5305 5309 5314
5509 5503 5497 5492 5487 5481 5476 5470 5464 5458 5452 5446 5440 5434 5428 5421 5414 5407 5401 5394 5386 5378 5371 5362 5353 5344 5336 5328 5321 5313 5307 5303 5299 5294 5291 5290 5291 5292 5294 5296 5300 5305
5500 5494 5489 5484 5479 5473 5467 5462 5455 5449 5443 5436 5431 5425 5418 5411 5405 5397 5390 5384 5375 5367 5358 5349 5340 5330 5322 5314 5306 5298 5292 5288 5286 5283 5281 5281 5282 5283 5285 5288 5291 5296
5491 5486 5481 5476 5471 5465 5460 5454 5447 5440 5434 5428 5421 5415 5409 5402 5395 5387 5380 5372 5364 5355 5346 5336 5327 5317 5307 5299 5291 5284 5279 5276 5274 5273 5272 5272 5273 5274 5276 5279 5282 5286
5483 5477 5473 5468 5463 5457 5451 5445 5438 5431 5425 5419 5412 5405 5399 5392 5385 5378 5369 5361 5352 5343 5333 5322 5313 5304 5294 5286 5278 5272 5269 5266 5265 5264 5264 5264 5265 5266 5268 5271 5274 5276
5474 5469 5464 5459 5454 5449 5442 5435 5429 5422 5416 5409 5403 5396 5389 5382 5375 5367 5359 5350 5339 5329 5319 5309 5299 5291 5282 5274 5267 5263 5260 5258 5257 5257 5256 5256 5257 5259 5261 5263 5265 5266
5466 5461 5455 5451 5446 5440 5434 5427 5420 5414 5407 5400 5393 5387 5380 5372 5364 5356 5347 5338 5327 5316 5306 5296 5287 5279 5270 5264 5259 5256 5253 5251 5250 5249 5248 5249 5250 5252 5253 5254 5255 5257
5458 5452 5447 5442 5437 5431 5425 5419 5412 5406 5399 5393 5385 5378 5371 5363 5355 5345 5335 5325 5315 5304 5294 5284 5275 5268 5261 5256 5252 5249 5246 5244 5243 5242 5242 5242 5243 5244 5245 5245 5246 5247
5450 5444 5439 5434 5429 5423 5417 5410 5404 5398 5392 5385 5377 5370 5362 5353 5345 5335 5325 5314 5303 5293 5283 5273 5266 5259 5253 5249 5246 5242 5239 5237 5236 5235 5235 5236 5236 5236 5236 5236 5235 5236
5442 5437 5432 5426 5421 5415 5409 5403 5396 5390 5384 5377 5369 5361 5353 5344 5335 5325 5315 5303 5292 5283 5273 5265 5258 5251 5246 5243 5240 5235 5232 5230 5229 5229 5229 5229 5229 5228 5227 5225 5224 5225
5434 5429 5424 5419 5413 5408 5401 5395 5388 5382 5375 5368 5361 5352 5344 5335 5325 5315 5305 5294 5283 5274 5265 5257 5250 5244 5239 5236 5233 5229 5226 5224 5223 5223 5223 5222 5221 5219 5216 5214 5213 5214
5426 5421 5416 5411 5406 5400 5393 5387 5380 5374 5367 5360 5352 5344 5335 5326 5316 5306 5296 5285 5274 5265 5256 5250 5243 5237 5233 5230 5226 5223 5220 5218 5218 5217 5216 5215 5213 5209 5206 5204 5204 5205
5419 5414 5409 5403 5398 5392 5385 5379 5373 5366 5360 5352 5344 5335 5326 5317 5307 5297 5287 5276 5265 5256 5249 5243 5237 5231 5227 5224 5220 5217 5215 5213 5213 5212 5210 5207 5205 5201 5199 5197 5198 5198
5412 5407 5401 5396 5390 5385 5378 5372 5366 5359 5353 5345 5337 5327 5317 5308 5298 5287 5277 5267 5256 5248 5242 5237 5231 5225 5221 5219 5215 5212 5210 5209 5208 5206 5204 5201 5198 5195 5194 5193 5193 5193
5404 5399 5394 5388 5383 5378 5372 5365 5359 5352 5346 5338 5330 5320 5310 5300 5289 5278 5267 5257 5247 5241 5236 5232 5226 5219 5216 5213 5211 5208 5206 5204 5203 5201 5199 5196 5193 5191 5190 5189 5189 5190
5396 5392 5387 5381 5375 5370 5365 5358 5352 5345 5338 5330 5321 5312 5302 5291 5281 5271 5259 5248 5239 5233 5230 5226 5221 5215 5210 5208 5206 5203 5201 5200 5198 5196 5194 5190 5188 5187 5186 5186 5187 5188
5389 5384 5379 5374 5368 5362 5357 5351 5345 5338 5331 5323 5313 5303 5293 5282 5272 5263 5252 5241 5233 5227 5224 5220 5215 5211 5206 5204 5202 5199 5196 5195 5193 5191 5188 5185 5183 5183 5183 5184 5186 5188
5382 5377 5372 5367 5361 5355 5349 5343 5337 5331 5324 5316 5307 5296 5285 5274 5264 5255 5246 5237 5228 5222 5218 5214 5210 5206 5203 5200 5197 5194 5191 5190 5188 5185 5182 5180 5179 5179 5180 5182 5185 5188
Wind_Speed
72 74 77 79 81 83 83 83 83 83 84 86 87 87 87 85 84 82 81 80 79 80 81 82 82 83 84 86 88 89 88 87 86 85 85 85 86 88 85 74 65 58
74 77 79 81 82 83 82 81 81 81 83 86 87 87 86 84 83 81 80 80 80 81 81 82 83 85 87 88 89 90 89 88 88 86 86 87 88 88 78 65 58 54
77 79 81 82 82 82 80 79 80 81 83 86 87 86 85 83 81 80 80 80 81 81 81 83 85 87 88 90 90 91 91 90 89 88 89 90 90 85 70 58 55 51
79 82 83 83 82 80 78 77 79 82 84 86 87 86 84 82 81 81 81 81 81 81 83 84 86 89 90 92 93 93 93 92 91 92 93 92 89 77 61 53 53 51
82 84 83 82 81 78 77 77 80 82 85 86 86 85 84 82 82 82 82 82 82 83 85 86 88 91 93 94 95 95 94 94 94 96 96 92 83 68 54 51 52 52
85 84 82 80 79 77 76 78 81 83 85 86 85 84 84 83 83 83 83 83 83 85 87 89 91 94 95 96 97 96 96 97 98 99 95 87 74 59 50 50 51 52
84 82 80 79 77 76 77 79 82 85 86 85 85 84 84 84 84 84 84 84 85 87 90 93 95 96 97 98 98 98 99 100 101 99 90 78 64 52 47 49 49 49
81 79 78 77 77 77 78 81 83 85 86 85 84 84 84 84 84 84 85 86 88 91 94 96 98 99 100 99 100 101 103 103 100 93 81 67 55 47 46 47 48 48
78 77 77 76 76 77 79 82 84 85 85 84 83 84 84 84 84 85 86 88 91 94 96 98 100 101 102 102 103 105 104 102 95 83 69 57 48 45 44 46 47 48
77 76 76 76 77 78 80 83 84 84 84 84 83 83 84 84 85 86 87 90 93 96 98 100 101 102 104 105 105 105 102 96 84 69 57 49 45 44 44 44 46 47
76 76 76 77 77 79 81 82 83 84 83 83 83 84 84 85 86 87 89 92 96 99 100 101 103 104 106 105 103 100 94 85 71 57 49 45 43 43 43 44 46 46
76 76 77 77 78 79 80 81 82 82 82 82 83 84 84 85 87 89 91 95 98 100 101 103 105 105 104 101 96 90 82 71 58 48 44 42 41 42 43 43 45 46
76 77 77 78 78 78 79 80 81 81 81 82 83 84 85 86 88 90 93 97 99 100 102 105 105 103 99 93 85 78 69 59 50 44 42 40 38 40 41 42 45 46
77 77 78 78 77 78 79 80 80 80 81 82 83 85 86 88 90 92 95 98 100 102 104 106 103 97 89 81 72 65 58 51 46 43 39 37 35 37 39 41 44 46
77 78 79 78 77 78 79 79 79 80 80 82 83 85 87 89 91 94 97 99 101 104 105 104 98 88 77 68 61 56 51 47 45 41 36 34 33 35 38 41 44 46
77 78 79 78 77 77 78 78 79 79 80 82 84 86 88 90 93 96 98 100 103 105 104 100 90 75 65 60 55 52 48 45 44 39 33 32 34 35 39 42 45 46
78 79 79 78 77 77 78 78 79 79 80 82 84 86 89 91 94 96 98 101 103 103 101 93 78 64 59 56 52 50 47 44 41 36 31 32 36 39 42 46 47 47
78 78 78 78 77 77 77 78 79 79 81 82 85 87 90 93 95 97 99 102 102 100 95 83 67 59 57 54 50 49 46 42 38 34 32 33 38 43 46 48 46 46
78 78 78 77 77 77 77 78 79 80 81 83 85 88 91 93 96 98 100 101 100 97 89 73 59 56 56 52 49 47 42 39 36 34 34 36 40 46 47 45 42 44
77 78 77 77 77 77 78 79 80 81 82 84 87 89 92 94 96 98 99 99 97 92 79 63 55 56 55 51 48 43 39 37 35 34 36 39 43 44 42 38 38 41
77 77 77 77 77 77 78 79 80 81 82 84 87 90 92 95 97 98 98 97 94 85 69 56 54 56 53 49 45 41 37 36 34 34 36 40 43 40 35 34 36 38
77 76 76 77 77 77 78 79 81 82 83 85 88 90 93 96 97 97 96 94 88 76 60 53 55 55 50 46 42 39 37 35 33 34 37 41 41 36 31 32 34 35
76 76 76 77 77 77 78 79 81 82 83 86 88 91 94 96 97 96 94 89 81 68 55 52 55 54 48 43 40 38 37 35 34 36 38 40 38 33 30 31 31 34
76 76 76 77 77 77 78 79 81 82 84 86 88 92 94 95 95 93 89 83 74 63 53 51 53 51 46 41 38 37 37 35 36 38 39 38 35 31 30 30 31 37
75 76 76 77 77 78 78 79 81 82 84 86 89 92 94 94 93 90 84 75 66 59 54 52 50 47 43 40 38 37 38 37 38 40 38 34 32 29 29 30 32 40
75 76 76 76 76 77 78 79 81 83 84 86 89 92 93 93 91 86 78 68 61 58 56 52 48 42 39 39 38 38 40 40 39 40 36 31 29 29 28 30 34 41
Wind_Direction
302 302 303 303 302 302 302 303 304 305 305 306 307 308 309 310 310 310 309 309 308 308 307 306 306 306 305 305 305 304 304 304 303 303 302 302 303 305 304 294 281 272
302 303 303 303 302 302 303 304 305 306 307 307 308 310 311 311 311 311 310 309 309 308 308 307 307 307 307 306 306 305 305 304 304 303 303 304 305 305 301 286 273 266
302 303 303 302 301 302 303 305 307 307 308 308 310 311 312 313 312 312 311 310 309 309 309 308 308 308 307 307 307 306 306 305 305 305 305 305 306 304 295 277 266 260
303 304 303 301 301 302 304 306 308 308 308 309 311 312 313 313 313 312 311 311 311 310 310 309 309 308 308 308 307 307 306 306 306 306 306 306 305 301 288 269 261 255
304 304 302 301 302 303 306 307 308 308 309 310 312 313 314 313 313 312 312 312 312 312 311 310 309 309 309 308 308 307 307 306 307 307 307 306 303 295 279 264 257 251
305 303 302 301 303 305 307 308 308 309 310 311 313 313 313 313 313 313 314 314 313 313 312 311 310 309 309 308 308 307 307 307 307 307 307 304 299 287 271 261 257 251
304 302 302 303 305 307 308 308 309 309 310 312 313 313 313 313 314 314 315 314 314 313 312 311 310 310 309 309 308 307 307 307 307 307 305 301 292 279 265 260 257 253
303 302 302 304 306 307 308 308 309 309 311 312 313 313 313 314 315 315 315 315 314 313 312 311 311 310 310 309 308 307 307 306 307 306 303 295 285 272 261 258 256 253
302 302 303 305 307 307 307 308 309 310 311 312 313 313 314 315 315 315 315 315 314 313 312 312 311 311 310 309 308 307 306 306 307 304 297 289 278 267 259 255 253 252
301 302 304 305 306 307 308 309 309 311 312 312 313 314 314 315 315 315 315 315 314 313 313 313 312 312 310 309 308 306 306 306 306 300 291 282 273 264 256 252 251 251
301 302 304 305 306 307 308 309 310 311 312 313 314 314 315 315 315 315 314 314 314 314 314 314 313 312 310 308 308 306 306 306 303 295 285 277 270 261 254 251 250 251
301 302 304 305 306 307 308 310 311 312 313 314 315 315 315 315 315 315 314 315 315 315 315 314 313 311 310 309 308 306 306 304 299 292 283 275 267 258 252 251 252 255
301 302 304 305 306 307 309 310 312 313 314 315 315 315 315 315 315 315 315 315 316 316 316 314 312 311 311 310 307 305 304 301 296 290 283 274 264 255 253 253 255 259
301 303 304 305 306 308 310 311 312 314 315 316 316 316 316 315 315 315 316 316 317 317 316 314 313 313 311 309 306 304 303 299 295 290 282 271 261 256 256 257 260 263
302 303 304 305 307 309 311 312 313 314 315 316 316 316 315 315 315 316 317 318 318 317 315 314 315 314 311 308 305 304 302 298 295 291 280 268 261 259 261 262 265 263
302 303 305 306 308 310 311 313 314 315 316 316 316 316 315 315 316 317 318 319 318 317 316 316 316 313 309 307 306 305 302 299 296 290 278 268 266 266 267 270 270 261
302 304 306 307 309 311 312 314 315 316 317 316 316 316 316 316 317 318 319 319 318 317 317 317 315 310 307 307 307 305 303 300 296 290 278 271 271 272 274 276 271 257
303 305 307 308 309 311 313 314 315 316 317 317 316 316 316 317 318 319 320 320 318 318 318 316 313 308 307 309 307 305 304 301 297 292 283 277 276 279 280 278 268 252
304 306 307 308 310 312 314 315 316 317 317 317 317 317 317 318 319 320 321 319 318 318 318 315 311 308 309 310 309 306 304 301 298 295 289 284 283 285 283 274 259 248
305 306 308 309 311 313 314 316 316 317 317 317 317 318 318 319 320 321 320 319 319 319 318 315 311 310 310 311 310 307 304 301 299 296 293 290 291 291 282 266 252 247
305 307 308 310 312 313 315 316 316 317 317 318 318 319 320 321 321 321 321 320 320 320 318 314 312 312 312 312 310 308 305 301 299 297 295 296 297 292 276 258 251 247
305 307 309 311 312 314 315 315 316 317 317 318 319 320 321 322 322 321 321 321 322 320 317 315 315 314 314 313 311 308 305 301 298 298 299 299 298 288 268 256 252 240
305 307 309 311 312 313 314 315 316 317 318 319 320 321 322 323 323 322 322 323 322 321 319 318 319 317 316 313 311 308 305 302 300 301 301 299 293 280 262 254 248 228
304 307 309 311 312 313 314 316 317 318 318 320 321 322 323 324 323 323 323 324 323 321 320 321 321 319 316 314 312 309 305 303 303 303 301 295 285 271 258 251 238 218
304 306 308 310 312 313 314 316 317 318 319 320 322 323 324 324 323 324 325 325 323 321 322 322 321 319 316 315 313 309 305 304 305 305 302 290 276 263 253 245 230 214
303 305 307 310 312 313 314 316 317 318 320 321 323 325 325 324 324 325 327 325 323 322 323 323 322 320 317 316 314 310 306 305 305 307 302 286 268 256 247 239 225 212